AAL49 SKBO-GOBD

Flight info

Callsign AAL49
Flight time 7h 19m
Altitude 35000
Route MAVDA UW20 AUC DCT MIQ UN669 ELJEZ/M084F350 DCT 2150N DCT 2340N DCT 22N036W DCT ERNEK/N0495F350 DCT EVKAS DCT BVT DCT MOGSA DCT PIVSA
Aircraft B77W/H-SDE1E2E3FGHIJ2J3J4J5M1RWXY/LB1D1

Departure

Time 2026-04-25 12:35
Airport El Dorado International Airport (SKBO)

Arrival

Time 2026-04-25 19:55
Airport Blaise Diagne International Airport (GOBD)
Time Latitude Longitude Altitude Speed Heading
2026-04-25 12:14 4.69942 -74.14278 8378 ft 0 kts 38°
2026-04-25 12:20 4.69929 -74.14288 8378 ft 3 kts 38°
2026-04-25 12:20 4.69913 -74.14301 8378 ft 3 kts 38°
2026-04-25 12:21 4.69896 -74.14314 8378 ft 3 kts 38°
2026-04-25 12:21 4.69885 -74.14323 8378 ft 0 kts 38°
2026-04-25 12:21 4.69901 -74.14316 8378 ft 3 kts 15°
2026-04-25 12:21 4.69935 -74.14330 8376 ft 7 kts 312°
2026-04-25 12:22 4.69947 -74.14378 8378 ft 7 kts 280°
2026-04-25 12:22 4.69956 -74.14409 8377 ft 0 kts 293°
2026-04-25 12:23 4.69967 -74.14432 8375 ft 11 kts 295°
2026-04-25 12:24 4.70025 -74.14523 8375 ft 16 kts 305°
2026-04-25 12:24 4.70095 -74.14614 8376 ft 17 kts 309°
2026-04-25 12:24 4.70148 -74.14684 8376 ft 10 kts 287°
2026-04-25 12:24 4.70116 -74.14741 8376 ft 10 kts 216°
2026-04-25 12:25 4.70061 -74.14782 8374 ft 10 kts 217°
2026-04-25 12:25 4.70008 -74.14824 8376 ft 11 kts 220°
2026-04-25 12:25 4.69950 -74.14873 8376 ft 11 kts 220°
2026-04-25 12:25 4.69893 -74.14922 8376 ft 11 kts 223°
2026-04-25 12:26 4.69882 -74.14990 8375 ft 11 kts 296°
2026-04-25 12:26 4.69928 -74.15049 8376 ft 11 kts 311°
2026-04-25 12:26 4.69998 -74.15146 8375 ft 25 kts 305°
2026-04-25 12:26 4.70102 -74.15293 8375 ft 26 kts 305°
2026-04-25 12:27 4.70224 -74.15462 8375 ft 33 kts 306°
2026-04-25 12:27 4.70352 -74.15632 8373 ft 30 kts 307°
2026-04-25 12:27 4.70479 -74.15798 8375 ft 30 kts 307°
2026-04-25 12:27 4.70605 -74.15965 8375 ft 30 kts 306°
2026-04-25 12:28 4.70731 -74.16129 8376 ft 29 kts 310°
2026-04-25 12:28 4.70784 -74.16195 8374 ft 0 kts 304°
2026-04-25 12:28 4.70792 -74.16207 8377 ft 8 kts 304°
2026-04-25 12:28 4.70857 -74.16295 8376 ft 19 kts 307°
2026-04-25 12:29 4.70931 -74.16396 8376 ft 17 kts 307°
2026-04-25 12:29 4.71003 -74.16493 8375 ft 17 kts 307°
2026-04-25 12:29 4.71076 -74.16590 8376 ft 17 kts 307°
2026-04-25 12:29 4.71148 -74.16687 8376 ft 17 kts 307°
2026-04-25 12:30 4.71165 -74.16711 8375 ft 0 kts 307°
2026-04-25 12:31 4.71177 -74.16726 8376 ft 8 kts 307°
2026-04-25 12:31 4.71187 -74.16740 8376 ft 0 kts 307°
2026-04-25 12:32 4.71191 -74.16745 8376 ft 5 kts 307°
2026-04-25 12:32 4.71207 -74.16789 8375 ft 4 kts 266°
2026-04-25 12:32 4.71190 -74.16824 8374 ft 7 kts 230°
2026-04-25 12:33 4.71155 -74.16844 8376 ft 5 kts 200°
2026-04-25 12:33 4.71138 -74.16850 8377 ft 0 kts 205°
2026-04-25 12:33 4.71126 -74.16856 8374 ft 8 kts 206°
2026-04-25 12:34 4.71054 -74.16876 8374 ft 9 kts 174°
2026-04-25 12:34 4.71027 -74.16862 8375 ft 0 kts 141°
2026-04-25 12:34 4.71011 -74.16847 8375 ft 19 kts 135°
2026-04-25 12:34 4.70895 -74.16706 8374 ft 60 kts 127°
2026-04-25 12:35 4.70346 -74.15976 8374 ft 134 kts 127°
2026-04-25 12:35 4.69683 -74.15096 8376 ft 181 kts 126°
2026-04-25 12:35 4.68899 -74.13987 8554 ft 196 kts 122°
2026-04-25 12:35 4.68166 -74.12887 9262 ft 188 kts 123°
2026-04-25 12:36 4.67173 -74.12066 9403 ft 191 kts 175°
2026-04-25 12:36 4.65918 -74.12409 9009 ft 199 kts 217°
2026-04-25 12:36 4.65020 -74.13441 9035 ft 196 kts 244°
2026-04-25 12:36 4.64471 -74.14664 9341 ft 189 kts 247°
2026-04-25 12:37 4.63866 -74.15814 9607 ft 184 kts 233°
2026-04-25 12:37 4.63098 -74.16868 9629 ft 193 kts 238°
2026-04-25 12:37 4.62494 -74.18065 9779 ft 189 kts 246°
2026-04-25 12:37 4.61967 -74.19227 10099 ft 179 kts 247°
2026-04-25 12:38 4.61578 -74.20456 10033 ft 193 kts 258°
2026-04-25 12:38 4.61334 -74.21788 10149 ft 192 kts 259°
2026-04-25 12:38 4.61105 -74.23125 10258 ft 199 kts 260°
2026-04-25 12:38 4.60872 -74.24503 10340 ft 202 kts 258°
2026-04-25 12:39 4.60614 -74.25929 10348 ft 215 kts 260°
2026-04-25 12:39 4.60038 -74.27347 10247 ft 227 kts 230°
2026-04-25 12:39 4.58960 -74.28564 10318 ft 241 kts 228°
2026-04-25 12:39 4.57795 -74.29847 10413 ft 259 kts 227°
2026-04-25 12:40 4.56513 -74.31213 10501 ft 278 kts 226°
2026-04-25 12:40 4.55145 -74.32639 10642 ft 297 kts 226°
2026-04-25 12:40 4.53658 -74.34177 10788 ft 318 kts 226°
2026-04-25 12:40 4.51964 -74.35672 10847 ft 333 kts 210°
2026-04-25 12:41 4.49741 -74.36487 10949 ft 348 kts 195°
2026-04-25 12:41 4.47473 -74.37453 11000 ft 365 kts 215°
2026-04-25 12:41 4.45435 -74.39031 11125 ft 378 kts 218°
2026-04-25 12:41 4.43256 -74.40554 11579 ft 386 kts 213°
2026-04-25 12:42 4.40940 -74.41961 12211 ft 391 kts 211°
2026-04-25 12:42 4.39355 -74.42892 12724 ft 392 kts 211°
2026-04-25 12:42 4.36086 -74.44377 13530 ft 396 kts 193°
2026-04-25 12:42 4.33319 -74.44520 14046 ft 404 kts 173°
2026-04-25 12:43 4.30626 -74.43711 14666 ft 408 kts 153°
2026-04-25 12:43 4.28332 -74.42043 15268 ft 411 kts 133°
2026-04-25 12:43 4.25954 -74.36886 16358 ft 415 kts 98°
2026-04-25 12:44 4.25534 -74.33994 16820 ft 423 kts 98°
2026-04-25 12:44 4.25094 -74.31064 17373 ft 427 kts 98°
2026-04-25 12:44 4.24163 -74.25149 18561 ft 433 kts 99°
2026-04-25 12:45 4.23676 -74.22161 19057 ft 436 kts 99°
2026-04-25 12:45 4.23181 -74.19147 19562 ft 440 kts 99°
2026-04-25 12:45 4.22176 -74.13072 20572 ft 445 kts 99°
2026-04-25 12:46 4.21669 -74.10004 21043 ft 448 kts 99°
2026-04-25 12:46 4.21159 -74.06918 21525 ft 450 kts 99°
2026-04-25 12:46 4.20669 -74.03820 21979 ft 448 kts 95°
2026-04-25 12:46 4.20805 -74.00694 22185 ft 454 kts 75°
2026-04-25 12:47 4.21996 -73.97773 22585 ft 456 kts 57°
2026-04-25 12:47 4.23992 -73.95320 23100 ft 455 kts 41°
2026-04-25 12:47 4.26555 -73.93467 23562 ft 457 kts 27°
2026-04-25 12:47 4.29523 -73.92341 23889 ft 457 kts 12°
2026-04-25 12:48 4.32663 -73.91750 24045 ft 463 kts
2026-04-25 12:48 4.35808 -73.91210 24075 ft 465 kts
2026-04-25 12:48 4.38986 -73.90650 24125 ft 462 kts 10°
2026-04-25 12:48 4.42147 -73.90067 24141 ft 462 kts 11°
2026-04-25 12:49 4.45302 -73.89463 24150 ft 461 kts 11°
2026-04-25 12:49 4.48454 -73.88849 24154 ft 461 kts 11°
2026-04-25 12:49 4.51606 -73.88239 24156 ft 460 kts 10°
2026-04-25 12:49 4.54828 -73.87983 24152 ft 460 kts 355°
2026-04-25 12:50 4.57943 -73.88620 24175 ft 458 kts 345°
2026-04-25 12:50 4.61046 -73.89440 24172 ft 464 kts 346°
2026-04-25 12:50 4.64181 -73.90207 24165 ft 465 kts 347°
2026-04-25 12:50 4.67329 -73.90927 24159 ft 463 kts 348°
2026-04-25 12:51 4.70472 -73.91628 24159 ft 462 kts 348°
2026-04-25 12:51 4.73566 -73.92321 24160 ft 461 kts 348°
2026-04-25 12:51 4.76696 -73.93024 24160 ft 461 kts 347°
2026-04-25 12:51 4.79842 -73.93515 24144 ft 460 kts
2026-04-25 12:52 4.83002 -73.92983 24168 ft 466 kts 21°
2026-04-25 12:52 4.85833 -73.91420 24179 ft 466 kts 37°
2026-04-25 12:52 4.88189 -73.89202 24163 ft 465 kts 51°
2026-04-25 12:52 4.90079 -73.86592 24169 ft 462 kts 55°
2026-04-25 12:53 4.91893 -73.83931 24165 ft 462 kts 56°
2026-04-25 12:53 4.93697 -73.81260 24164 ft 463 kts 56°
2026-04-25 12:53 4.95504 -73.78584 24160 ft 464 kts 55°
2026-04-25 12:53 4.97324 -73.75911 24158 ft 464 kts 55°
2026-04-25 12:54 4.99154 -73.73241 24160 ft 465 kts 55°
2026-04-25 12:54 5.00994 -73.70574 24159 ft 465 kts 55°
2026-04-25 12:54 5.02843 -73.67911 24157 ft 465 kts 55°
2026-04-25 12:54 5.04697 -73.65250 24159 ft 465 kts 55°
2026-04-25 12:55 5.06552 -73.62591 24147 ft 465 kts 55°
2026-04-25 12:55 5.07776 -73.60835 24146 ft 465 kts 54°
2026-04-25 12:55 5.10255 -73.57281 24168 ft 463 kts 54°
2026-04-25 12:55 5.12091 -73.54645 24432 ft 460 kts 55°
2026-04-25 12:56 5.13928 -73.52007 24761 ft 463 kts 55°
2026-04-25 12:56 5.15778 -73.49352 25104 ft 466 kts 55°
2026-04-25 12:56 5.17639 -73.46682 25444 ft 468 kts 56°
2026-04-25 12:56 5.19506 -73.44003 25795 ft 471 kts 56°
2026-04-25 12:57 5.21385 -73.41304 26136 ft 473 kts 56°
2026-04-25 12:57 5.23272 -73.38594 26494 ft 475 kts 56°
2026-04-25 12:57 5.25166 -73.35873 26850 ft 477 kts 56°
2026-04-25 12:57 5.27067 -73.33141 27231 ft 478 kts 56°
2026-04-25 12:58 5.28949 -73.30436 27590 ft 480 kts 56°
2026-04-25 12:58 5.30862 -73.27686 27955 ft 481 kts 56°
2026-04-25 12:58 5.32779 -73.24930 28332 ft 482 kts 56°
2026-04-25 12:58 5.34701 -73.22168 28706 ft 483 kts 56°
2026-04-25 12:59 5.36626 -73.19400 29081 ft 484 kts 56°
2026-04-25 12:59 5.38554 -73.16628 29458 ft 484 kts 56°
2026-04-25 12:59 5.40483 -73.13853 29864 ft 485 kts 56°
2026-04-25 12:59 5.42420 -73.11067 30135 ft 488 kts 57°
2026-04-25 13:00 5.44369 -73.08262 30333 ft 492 kts 57°
2026-04-25 13:00 5.45029 -73.07313 30391 ft 492 kts 57°
2026-04-25 13:00 5.48323 -73.02572 30688 ft 497 kts 56°
2026-04-25 13:00 5.50276 -72.99761 30868 ft 498 kts 56°
2026-04-25 13:01 5.52263 -72.96902 31074 ft 500 kts 57°
2026-04-25 13:01 5.54256 -72.94033 31265 ft 502 kts 57°
2026-04-25 13:01 5.56254 -72.91157 31449 ft 503 kts 57°
2026-04-25 13:01 5.58254 -72.88277 31623 ft 503 kts 57°
2026-04-25 13:02 5.60256 -72.85395 31824 ft 503 kts 57°
2026-04-25 13:02 5.62256 -72.82513 32018 ft 503 kts 57°
2026-04-25 13:02 5.64256 -72.79633 32179 ft 503 kts 57°
2026-04-25 13:02 5.66255 -72.76755 32374 ft 502 kts 57°
2026-04-25 13:03 5.68251 -72.73879 32523 ft 502 kts 57°
2026-04-25 13:03 5.70251 -72.70997 32575 ft 503 kts 57°
2026-04-25 13:03 5.74205 -72.65298 32696 ft 493 kts 57°
2026-04-25 13:04 5.76164 -72.62475 32824 ft 492 kts 57°
2026-04-25 13:04 5.78151 -72.59609 32932 ft 492 kts 57°
2026-04-25 13:04 5.80076 -72.56831 33069 ft 492 kts 57°
2026-04-25 13:04 5.82031 -72.54011 33204 ft 492 kts 58°
2026-04-25 13:05 5.85942 -72.48369 33430 ft 492 kts 58°
2026-04-25 13:05 5.87897 -72.45548 33546 ft 492 kts 58°
2026-04-25 13:05 5.89853 -72.42725 33676 ft 492 kts 58°
2026-04-25 13:06 5.91809 -72.39902 33806 ft 492 kts 58°
2026-04-25 13:06 5.93765 -72.37078 33874 ft 492 kts 58°
2026-04-25 13:06 5.95720 -72.34255 34029 ft 492 kts 58°
2026-04-25 13:06 5.97674 -72.31435 34156 ft 491 kts 58°
2026-04-25 13:07 5.99625 -72.28617 34270 ft 491 kts 58°
2026-04-25 13:07 6.01574 -72.25802 34372 ft 491 kts 58°
2026-04-25 13:07 6.05463 -72.20184 34555 ft 490 kts 58°
2026-04-25 13:08 6.07406 -72.17377 34666 ft 489 kts 58°
2026-04-25 13:08 6.09346 -72.14573 34821 ft 488 kts 58°
2026-04-25 13:08 6.11282 -72.11773 34922 ft 488 kts 58°
2026-04-25 13:08 6.13217 -72.08974 34972 ft 488 kts 58°
2026-04-25 13:09 6.17095 -72.03366 35060 ft 489 kts 58°
2026-04-25 13:09 6.20990 -71.97731 35036 ft 492 kts 58°
2026-04-25 13:10 6.24903 -71.92071 35059 ft 494 kts 58°
2026-04-25 13:10 6.28820 -71.86404 35051 ft 489 kts 58°
2026-04-25 13:11 6.30737 -71.83631 35010 ft 478 kts 58°
2026-04-25 13:11 6.32615 -71.80909 35012 ft 471 kts 58°
2026-04-25 13:11 6.36313 -71.75549 35005 ft 465 kts 58°
2026-04-25 13:12 6.40022 -71.70176 35000 ft 469 kts 58°
2026-04-25 13:12 6.42527 -71.66544 35019 ft 476 kts 58°
2026-04-25 13:13 6.47540 -71.59292 35004 ft 466 kts 58°
2026-04-25 13:13 6.51232 -71.53937 35017 ft 471 kts 57°
2026-04-25 13:14 6.55005 -71.48459 35017 ft 482 kts 57°
2026-04-25 13:14 6.58854 -71.42873 35008 ft 489 kts 57°
2026-04-25 13:15 6.62666 -71.37377 34975 ft 468 kts 53°
2026-04-25 13:15 6.64912 -71.34983 35009 ft 475 kts 40°
2026-04-25 13:15 6.67668 -71.33105 35006 ft 483 kts 28°
2026-04-25 13:16 6.70809 -71.31841 35003 ft 490 kts 16°
2026-04-25 13:16 6.74136 -71.31250 34985 ft 484 kts
2026-04-25 13:16 6.80851 -71.31077 35019 ft 481 kts
2026-04-25 13:17 6.87557 -71.31200 35006 ft 487 kts 360°
2026-04-25 13:17 6.94413 -71.31362 35016 ft 498 kts 359°
2026-04-25 13:18 7.00190 -71.31508 35002 ft 501 kts 359°
2026-04-25 13:18 7.07162 -71.31692 34985 ft 498 kts 360°
2026-04-25 13:19 7.14030 -71.31875 34994 ft 491 kts 359°
2026-04-25 13:19 7.19756 -71.32009 34999 ft 490 kts
2026-04-25 13:20 7.24191 -71.31319 35010 ft 488 kts 19°
2026-04-25 13:20 7.27304 -71.29985 34989 ft 486 kts 32°
2026-04-25 13:20 7.30054 -71.28021 35010 ft 485 kts 44°
2026-04-25 13:20 7.32321 -71.25522 34987 ft 483 kts 57°
2026-04-25 13:21 7.34002 -71.22604 35010 ft 482 kts 68°
2026-04-25 13:21 7.35204 -71.19465 35010 ft 482 kts 73°
2026-04-25 13:21 7.37154 -71.12977 34996 ft 485 kts 76°
2026-04-25 13:22 7.38972 -71.06408 34989 ft 488 kts 76°
2026-04-25 13:23 7.41879 -70.96572 34969 ft 489 kts 63°
2026-04-25 13:23 7.43888 -70.93810 35007 ft 492 kts 45°
2026-04-25 13:23 7.46477 -70.91540 35003 ft 495 kts 40°
2026-04-25 13:24 7.51807 -70.87131 34978 ft 496 kts 43°
2026-04-25 13:24 7.56628 -70.82163 34986 ft 496 kts 50°
2026-04-25 13:25 7.61025 -70.76814 35002 ft 495 kts 53°
2026-04-25 13:25 7.65303 -70.71378 34986 ft 494 kts 53°
2026-04-25 13:26 7.69590 -70.65978 34988 ft 493 kts 53°
2026-04-25 13:26 7.73905 -70.60601 34992 ft 492 kts 52°
2026-04-25 13:27 7.78210 -70.55254 34991 ft 491 kts 52°
2026-04-25 13:27 7.82509 -70.49910 35004 ft 490 kts 52°
2026-04-25 13:28 7.86801 -70.44571 34998 ft 490 kts 52°
2026-04-25 13:28 7.91090 -70.39232 35003 ft 490 kts 52°
2026-04-25 13:29 7.95382 -70.33890 34989 ft 490 kts 52°
2026-04-25 13:29 7.99678 -70.28537 35003 ft 491 kts 52°
2026-04-25 13:30 8.06107 -70.20522 35007 ft 492 kts 52°
2026-04-25 13:31 8.12598 -70.12429 34999 ft 493 kts 52°
2026-04-25 13:31 8.16915 -70.07043 35001 ft 494 kts 52°
2026-04-25 13:32 8.21214 -70.01680 35007 ft 496 kts 52°
2026-04-25 13:32 8.25557 -69.96259 35006 ft 498 kts 52°
2026-04-25 13:33 8.29921 -69.90813 34991 ft 500 kts 52°
2026-04-25 13:33 8.34301 -69.85348 34985 ft 501 kts 52°
2026-04-25 13:34 8.38689 -69.79859 35001 ft 503 kts 52°
2026-04-25 13:34 8.43091 -69.74354 34989 ft 504 kts 52°
2026-04-25 13:35 8.47504 -69.68841 35005 ft 505 kts 52°
2026-04-25 13:35 8.51914 -69.63323 35007 ft 504 kts 52°
2026-04-25 13:36 8.56316 -69.57811 34991 ft 504 kts 52°
2026-04-25 13:36 8.60724 -69.52290 34994 ft 504 kts 52°
2026-04-25 13:37 8.65122 -69.46779 35008 ft 504 kts 52°
2026-04-25 13:37 8.69525 -69.41261 34993 ft 504 kts 52°
2026-04-25 13:38 8.73929 -69.35740 34989 ft 504 kts 52°
2026-04-25 13:38 8.78332 -69.30216 34991 ft 505 kts 52°
2026-04-25 13:39 8.82736 -69.24689 35006 ft 505 kts 52°
2026-04-25 13:39 8.87140 -69.19161 35010 ft 505 kts 52°
2026-04-25 13:40 8.91541 -69.13633 35006 ft 505 kts 52°
2026-04-25 13:40 8.95953 -69.08090 35007 ft 506 kts 52°
2026-04-25 13:41 9.00372 -69.02534 35009 ft 507 kts 52°
2026-04-25 13:41 9.04798 -68.96969 34991 ft 508 kts 52°
2026-04-25 13:42 9.09227 -68.91397 34992 ft 508 kts 52°
2026-04-25 13:42 9.13659 -68.85818 35000 ft 508 kts 52°
2026-04-25 13:43 9.18082 -68.80248 34987 ft 508 kts 52°
2026-04-25 13:43 9.22509 -68.74672 35003 ft 507 kts 52°
2026-04-25 13:44 9.26921 -68.69112 35000 ft 507 kts 52°
2026-04-25 13:44 9.31334 -68.63548 35001 ft 507 kts 52°
2026-04-25 13:45 9.35744 -68.57985 35002 ft 506 kts 52°
2026-04-25 13:45 9.40122 -68.52457 34999 ft 506 kts 52°
2026-04-25 13:46 9.44531 -68.46891 35004 ft 506 kts 52°
2026-04-25 13:46 9.48936 -68.41328 34997 ft 507 kts 52°
2026-04-25 13:47 9.53350 -68.35750 34986 ft 508 kts 52°
2026-04-25 13:47 9.57767 -68.30162 35009 ft 508 kts 52°
2026-04-25 13:48 9.62192 -68.24564 34995 ft 509 kts 52°
2026-04-25 13:48 9.66623 -68.18959 34997 ft 510 kts 52°
2026-04-25 13:49 9.71057 -68.13344 35017 ft 510 kts 52°
2026-04-25 13:49 9.75498 -68.07720 35015 ft 511 kts 52°
2026-04-25 13:50 9.79937 -68.02095 35000 ft 512 kts 52°
2026-04-25 13:50 9.84381 -67.96454 35016 ft 512 kts 52°
2026-04-25 13:51 9.88830 -67.90807 35021 ft 512 kts 52°
2026-04-25 13:51 9.93281 -67.85162 35041 ft 512 kts 52°
2026-04-25 13:52 9.97732 -67.79513 35024 ft 513 kts 52°
2026-04-25 13:52 10.02185 -67.73857 35021 ft 513 kts 52°
2026-04-25 13:53 10.06634 -67.68204 35037 ft 513 kts 52°
2026-04-25 13:53 10.11081 -67.62550 35030 ft 512 kts 52°
2026-04-25 13:54 10.15491 -67.56940 35008 ft 512 kts 52°
2026-04-25 13:54 10.19928 -67.51301 35003 ft 512 kts 52°
2026-04-25 13:55 10.24401 -67.45610 35003 ft 513 kts 52°
2026-04-25 13:55 10.28823 -67.39970 35031 ft 514 kts 53°
2026-04-25 13:56 10.33280 -67.34285 35027 ft 515 kts 53°
2026-04-25 13:56 10.37739 -67.28595 35012 ft 515 kts 53°
2026-04-25 13:57 10.42206 -67.22894 35037 ft 516 kts 53°
2026-04-25 13:57 10.46675 -67.17189 35008 ft 516 kts 52°
2026-04-25 13:58 10.51145 -67.11477 35008 ft 516 kts 52°
2026-04-25 13:58 10.55613 -67.05765 34974 ft 516 kts 53°
2026-04-25 13:59 10.60071 -67.00064 34982 ft 515 kts 53°
2026-04-25 13:59 10.64219 -66.94149 34981 ft 513 kts 57°
2026-04-25 14:00 10.68205 -66.88102 34954 ft 516 kts 57°
2026-04-25 14:00 10.72208 -66.82042 34983 ft 518 kts 57°
2026-04-25 14:01 10.76241 -66.75974 34970 ft 517 kts 57°
2026-04-25 14:01 10.80264 -66.69932 34975 ft 515 kts 57°
2026-04-25 14:02 10.84272 -66.63909 34964 ft 514 kts 57°
2026-04-25 14:02 10.88273 -66.57892 34961 ft 515 kts 57°
2026-04-25 14:03 10.92287 -66.51847 34968 ft 517 kts 57°
2026-04-25 14:03 10.96317 -66.45775 34959 ft 519 kts 57°
2026-04-25 14:04 10.99678 -66.40709 34979 ft 520 kts 57°
2026-04-25 14:04 11.03735 -66.34600 34961 ft 521 kts 57°
2026-04-25 14:05 11.07861 -66.28526 34957 ft 523 kts 56°
2026-04-25 14:05 11.12010 -66.22440 34961 ft 524 kts 57°
2026-04-25 14:06 11.16150 -66.16331 34964 ft 524 kts 57°
2026-04-25 14:06 11.20292 -66.10219 34962 ft 524 kts 57°
2026-04-25 14:07 11.24432 -66.04109 34967 ft 524 kts 57°
2026-04-25 14:07 11.28565 -65.98002 34965 ft 523 kts 57°
2026-04-25 14:08 11.32691 -65.91903 34958 ft 522 kts 57°
2026-04-25 14:08 11.36804 -65.85817 34960 ft 522 kts 57°
2026-04-25 14:09 11.40919 -65.79725 34963 ft 521 kts 57°
2026-04-25 14:09 11.45032 -65.73633 34962 ft 522 kts 57°
2026-04-25 14:10 11.49143 -65.67537 34966 ft 522 kts 57°
2026-04-25 14:10 11.53254 -65.61434 34966 ft 522 kts 57°
2026-04-25 14:11 11.57365 -65.55327 34961 ft 522 kts 57°
2026-04-25 14:11 11.61447 -65.49259 34966 ft 522 kts 57°
2026-04-25 14:12 11.65554 -65.43149 34970 ft 522 kts 57°
2026-04-25 14:12 11.69676 -65.37060 34962 ft 522 kts 56°
2026-04-25 14:13 11.73870 -65.31014 34967 ft 522 kts 56°
2026-04-25 14:13 11.78074 -65.24971 34963 ft 522 kts 56°
2026-04-25 14:14 11.82270 -65.18912 34981 ft 523 kts 56°
2026-04-25 14:14 11.86464 -65.12836 34983 ft 524 kts 56°
2026-04-25 14:15 11.90663 -65.06750 34962 ft 524 kts 56°
2026-04-25 14:15 11.94865 -65.00657 34964 ft 525 kts 56°
2026-04-25 14:16 11.99064 -64.94566 34965 ft 525 kts 56°
2026-04-25 14:16 12.03266 -64.88466 34967 ft 525 kts 56°
2026-04-25 14:17 12.07465 -64.82367 34971 ft 525 kts 56°
2026-04-25 14:17 12.11660 -64.76269 34971 ft 524 kts 56°
2026-04-25 14:18 12.15853 -64.70171 34968 ft 524 kts 56°
2026-04-25 14:18 12.20042 -64.64074 34973 ft 524 kts 56°
2026-04-25 14:19 12.24229 -64.57977 34977 ft 524 kts 56°
2026-04-25 14:19 12.28412 -64.51880 34971 ft 524 kts 56°
2026-04-25 14:20 12.32593 -64.45782 34969 ft 523 kts 56°
2026-04-25 14:20 12.36763 -64.39693 34972 ft 523 kts 56°
2026-04-25 14:21 12.40903 -64.33576 34972 ft 523 kts 57°
2026-04-25 14:21 12.45025 -64.27453 34970 ft 522 kts 57°
2026-04-25 14:22 12.49145 -64.21335 34973 ft 522 kts 57°
2026-04-25 14:22 12.53238 -64.15262 34978 ft 522 kts 57°
2026-04-25 14:23 12.57358 -64.09147 34972 ft 522 kts 57°
2026-04-25 14:23 12.61474 -64.03027 34980 ft 522 kts 56°
2026-04-25 14:24 12.65590 -63.96911 34975 ft 521 kts 56°
2026-04-25 14:24 12.69698 -63.90803 34979 ft 521 kts 56°
2026-04-25 14:25 12.73804 -63.84689 34980 ft 521 kts 56°
2026-04-25 14:25 12.77907 -63.78575 34982 ft 521 kts 57°
2026-04-25 14:26 12.82013 -63.72464 34977 ft 521 kts 56°
2026-04-25 14:26 12.86132 -63.66350 34983 ft 521 kts 56°
2026-04-25 14:27 12.90613 -63.60495 34983 ft 523 kts 51°
2026-04-25 14:27 12.95278 -63.54766 34979 ft 524 kts 51°
2026-04-25 14:28 12.99937 -63.49023 34980 ft 524 kts 51°
2026-04-25 14:28 13.04577 -63.43254 34981 ft 524 kts 51°
2026-04-25 14:29 13.09208 -63.37472 34976 ft 525 kts 52°
2026-04-25 14:29 13.13834 -63.31693 34993 ft 525 kts 52°
2026-04-25 14:30 13.18471 -63.25897 34981 ft 525 kts 52°
2026-04-25 14:30 13.25417 -63.17215 34984 ft 525 kts 52°
2026-04-25 14:31 13.30023 -63.11450 34979 ft 526 kts 52°
2026-04-25 14:31 13.34664 -63.05636 34980 ft 527 kts 52°
2026-04-25 14:32 13.39307 -62.99812 34979 ft 528 kts 52°
2026-04-25 14:32 13.43965 -62.93975 34985 ft 529 kts 52°
2026-04-25 14:33 13.48634 -62.88129 34985 ft 530 kts 52°
2026-04-25 14:33 13.53303 -62.82266 34981 ft 530 kts 52°
2026-04-25 14:34 13.57976 -62.76392 34987 ft 531 kts 52°
2026-04-25 14:34 13.62652 -62.70524 34988 ft 531 kts 52°
2026-04-25 14:35 13.67337 -62.64637 34987 ft 531 kts 52°
2026-04-25 14:35 13.72008 -62.58753 34986 ft 532 kts 52°
2026-04-25 14:36 13.76684 -62.52858 34991 ft 532 kts 52°
2026-04-25 14:36 13.81361 -62.46960 34988 ft 532 kts 52°
2026-04-25 14:37 13.86039 -62.41059 34993 ft 532 kts 52°
2026-04-25 14:37 13.90717 -62.35153 34990 ft 532 kts 52°
2026-04-25 14:38 13.95395 -62.29244 34989 ft 533 kts 52°
2026-04-25 14:38 14.00076 -62.23326 34988 ft 533 kts 52°
2026-04-25 14:39 14.04760 -62.17399 34987 ft 534 kts 52°
2026-04-25 14:39 14.09445 -62.11467 34991 ft 535 kts 52°
2026-04-25 14:40 14.14141 -62.05518 34990 ft 535 kts 52°
2026-04-25 14:40 14.18841 -61.99560 34987 ft 536 kts 52°
2026-04-25 14:41 14.23543 -61.93594 34993 ft 536 kts 52°
2026-04-25 14:41 14.28247 -61.87621 34984 ft 537 kts 52°
2026-04-25 14:42 14.31362 -61.83663 34988 ft 537 kts 52°
2026-04-25 14:42 14.37630 -61.75694 34990 ft 537 kts 52°
2026-04-25 14:43 14.42339 -61.69702 34989 ft 538 kts 52°
2026-04-25 14:43 14.47048 -61.63705 34988 ft 538 kts 52°
2026-04-25 14:44 14.51762 -61.57697 34989 ft 538 kts 52°
2026-04-25 14:44 14.56472 -61.51690 34988 ft 538 kts 52°
2026-04-25 14:45 14.61176 -61.45686 34988 ft 538 kts 52°
2026-04-25 14:45 14.65884 -61.39671 34992 ft 538 kts 52°
2026-04-25 14:46 14.70590 -61.33653 34992 ft 538 kts 52°
2026-04-25 14:46 14.75291 -61.27632 34998 ft 538 kts 52°
2026-04-25 14:47 14.78406 -61.23648 34997 ft 539 kts 52°
2026-04-25 14:47 14.84705 -61.15582 34991 ft 539 kts 52°
2026-04-25 14:48 14.89405 -61.09557 34999 ft 539 kts 52°
2026-04-25 14:48 14.94080 -61.03562 34996 ft 539 kts 52°
2026-04-25 14:49 14.98781 -60.97520 35001 ft 539 kts 52°
2026-04-25 14:49 15.03485 -60.91476 35008 ft 539 kts 52°
2026-04-25 14:50 15.08194 -60.85427 35003 ft 540 kts 52°
2026-04-25 14:50 15.12903 -60.79375 35004 ft 540 kts 52°
2026-04-25 14:51 15.17603 -60.73323 35000 ft 540 kts 52°
2026-04-25 14:51 15.22312 -60.67254 35004 ft 540 kts 52°
2026-04-25 14:52 15.26219 -60.62218 35004 ft 540 kts 52°
2026-04-25 14:52 15.30155 -60.57136 35007 ft 540 kts 51°
2026-04-25 14:53 15.35626 -60.50070 35003 ft 541 kts 51°
2026-04-25 14:53 15.40326 -60.43997 34998 ft 541 kts 52°
2026-04-25 14:54 15.45028 -60.37914 35005 ft 541 kts 52°
2026-04-25 14:54 15.49726 -60.31826 35004 ft 541 kts 52°
2026-04-25 14:55 15.54425 -60.25737 35010 ft 541 kts 51°
2026-04-25 14:55 15.59124 -60.19646 35006 ft 541 kts 51°
2026-04-25 14:56 15.63820 -60.13551 35004 ft 541 kts 51°
2026-04-25 14:56 15.68514 -60.07454 35006 ft 541 kts 51°
2026-04-25 14:57 15.73201 -60.01360 35008 ft 541 kts 51°
2026-04-25 14:57 15.77893 -59.95255 35008 ft 541 kts 51°
2026-04-25 14:58 15.82584 -59.89148 35008 ft 541 kts 51°
2026-04-25 14:58 15.87242 -59.83077 35008 ft 541 kts 51°
2026-04-25 14:59 15.91930 -59.76962 35008 ft 541 kts 51°
2026-04-25 14:59 15.96617 -59.70844 35008 ft 541 kts 51°
2026-04-25 15:00 16.01303 -59.64721 35010 ft 541 kts 51°
2026-04-25 15:00 16.05982 -59.58602 35013 ft 542 kts 51°
2026-04-25 15:01 16.10671 -59.52464 35010 ft 542 kts 51°
2026-04-25 15:01 16.15363 -59.46318 35008 ft 543 kts 51°
2026-04-25 15:02 16.20057 -59.40165 35009 ft 543 kts 51°
2026-04-25 15:02 16.24751 -59.34007 35007 ft 543 kts 51°
2026-04-25 15:03 16.29443 -59.27846 35021 ft 542 kts 51°
2026-04-25 15:03 16.34130 -59.21682 35005 ft 543 kts 51°
2026-04-25 15:04 16.38820 -59.15512 35015 ft 543 kts 51°
2026-04-25 15:04 16.43507 -59.09342 35010 ft 544 kts 51°
2026-04-25 15:05 16.48204 -59.03149 35013 ft 544 kts 51°
2026-04-25 15:06 16.55194 -58.93923 35021 ft 543 kts 51°
2026-04-25 15:06 16.59876 -58.87737 35009 ft 543 kts 51°
2026-04-25 15:07 16.64559 -58.81546 35016 ft 544 kts 51°
2026-04-25 15:07 16.69240 -58.75353 35012 ft 544 kts 51°
2026-04-25 15:08 16.73928 -58.69143 35015 ft 545 kts 51°
2026-04-25 15:08 16.78624 -58.62918 35015 ft 545 kts 51°
2026-04-25 15:09 16.83318 -58.56690 35021 ft 546 kts 51°
2026-04-25 15:09 16.90361 -58.47334 35015 ft 547 kts 51°
2026-04-25 15:10 16.95060 -58.41086 35017 ft 547 kts 51°
2026-04-25 15:11 17.02098 -58.31716 35019 ft 546 kts 51°
2026-04-25 15:11 17.06785 -58.25468 35029 ft 546 kts 51°
2026-04-25 15:12 17.13786 -58.16127 35022 ft 546 kts 51°
2026-04-25 15:12 17.16917 -58.11945 35019 ft 546 kts 51°
2026-04-25 15:13 17.25479 -58.00495 35024 ft 546 kts 51°
2026-04-25 15:14 17.30158 -57.94229 35022 ft 546 kts 51°
2026-04-25 15:14 17.34828 -57.87971 35031 ft 546 kts 51°
2026-04-25 15:15 17.39504 -57.81704 35023 ft 546 kts 51°
2026-04-25 15:15 17.44184 -57.75438 35026 ft 546 kts 51°
2026-04-25 15:16 17.48850 -57.69160 35023 ft 546 kts 51°
2026-04-25 15:16 17.55846 -57.59732 35025 ft 546 kts 51°
2026-04-25 15:17 17.62847 -57.50294 35031 ft 547 kts 51°
2026-04-25 15:18 17.67511 -57.44002 35029 ft 547 kts 51°
2026-04-25 15:18 17.74518 -57.34550 35045 ft 547 kts 51°
2026-04-25 15:19 17.77638 -57.30322 35033 ft 547 kts 51°
2026-04-25 15:19 17.83847 -57.21916 35035 ft 548 kts 51°
2026-04-25 15:20 17.88516 -57.15591 35038 ft 548 kts 51°
2026-04-25 15:20 17.93185 -57.09258 35030 ft 548 kts 51°
2026-04-25 15:21 17.97844 -57.02923 35048 ft 548 kts 52°
2026-04-25 15:21 18.01903 -56.96150 35022 ft 549 kts 64°
2026-04-25 15:22 18.05153 -56.88891 35042 ft 549 kts 65°
2026-04-25 15:22 18.08384 -56.81606 35034 ft 550 kts 65°
2026-04-25 15:23 18.11655 -56.74339 35038 ft 550 kts 64°
2026-04-25 15:23 18.14958 -56.67090 35034 ft 549 kts 65°
2026-04-25 15:24 18.18214 -56.59884 35031 ft 549 kts 65°
2026-04-25 15:24 18.20402 -56.55036 35039 ft 548 kts 65°
2026-04-25 15:25 18.24755 -56.45398 35035 ft 547 kts 65°
2026-04-25 15:25 18.28019 -56.38168 35035 ft 547 kts 65°
2026-04-25 15:26 18.31276 -56.30943 35039 ft 546 kts 65°
2026-04-25 15:26 18.34522 -56.23730 35036 ft 546 kts 65°
2026-04-25 15:27 18.37766 -56.16513 35039 ft 545 kts 65°
2026-04-25 15:28 18.42631 -56.05672 35043 ft 546 kts 65°
2026-04-25 15:28 18.45878 -55.98425 35045 ft 548 kts 65°
2026-04-25 15:29 18.49128 -55.91162 35043 ft 549 kts 65°
2026-04-25 15:29 18.52381 -55.83885 35041 ft 549 kts 65°
2026-04-25 15:30 18.55634 -55.76599 35042 ft 549 kts 65°
2026-04-25 15:30 18.58884 -55.69311 35047 ft 550 kts 65°
2026-04-25 15:31 18.62131 -55.62020 35052 ft 550 kts 65°
2026-04-25 15:31 18.65382 -55.54711 35043 ft 551 kts 65°
2026-04-25 15:32 18.68631 -55.47395 35052 ft 550 kts 65°
2026-04-25 15:32 18.71872 -55.40090 35046 ft 550 kts 65°
2026-04-25 15:33 18.76722 -55.29143 35055 ft 548 kts 65°
2026-04-25 15:33 18.79948 -55.21846 35053 ft 548 kts 65°
2026-04-25 15:34 18.83152 -55.14595 35039 ft 549 kts 65°
2026-04-25 15:34 18.85307 -55.09710 35044 ft 549 kts 65°
2026-04-25 15:35 18.91208 -54.96315 35055 ft 549 kts 65°
2026-04-25 15:36 18.96029 -54.85347 35062 ft 549 kts 65°
2026-04-25 15:36 18.99245 -54.78019 35044 ft 550 kts 65°
2026-04-25 15:37 19.02463 -54.70679 35065 ft 550 kts 65°
2026-04-25 15:37 19.05680 -54.63331 35043 ft 551 kts 65°
2026-04-25 15:38 19.08894 -54.55981 35042 ft 551 kts 65°
2026-04-25 15:38 19.12103 -54.48630 35042 ft 550 kts 65°
2026-04-25 15:39 19.15307 -54.41282 35049 ft 550 kts 65°
2026-04-25 15:39 19.17966 -54.35177 35047 ft 550 kts 65°
2026-04-25 15:40 19.20628 -54.29060 35055 ft 550 kts 65°
2026-04-25 15:40 19.24367 -54.20456 35063 ft 551 kts 65°
2026-04-25 15:41 19.27563 -54.13089 35049 ft 551 kts 65°
2026-04-25 15:41 19.30755 -54.05723 35051 ft 550 kts 65°
2026-04-25 15:42 19.33944 -53.98354 35050 ft 551 kts 65°
2026-04-25 15:42 19.37133 -53.90975 35060 ft 551 kts 65°
2026-04-25 15:43 19.40321 -53.83588 35057 ft 552 kts 65°
2026-04-25 15:43 19.43509 -53.76192 35058 ft 552 kts 65°
2026-04-25 15:44 19.46691 -53.68801 35067 ft 552 kts 65°
2026-04-25 15:44 19.49871 -53.61403 35054 ft 551 kts 65°
2026-04-25 15:45 19.53049 -53.54001 35053 ft 552 kts 65°
2026-04-25 15:45 19.55693 -53.47836 35061 ft 553 kts 65°
2026-04-25 15:46 19.59389 -53.39204 35060 ft 554 kts 65°
2026-04-25 15:46 19.62593 -53.31711 35057 ft 554 kts 65°
2026-04-25 15:47 19.65754 -53.24307 35052 ft 555 kts 65°
2026-04-25 15:47 19.68951 -53.16811 35064 ft 555 kts 65°
2026-04-25 15:48 19.72130 -53.09346 35059 ft 555 kts 65°
2026-04-25 15:48 19.75287 -53.01921 35062 ft 556 kts 65°
2026-04-25 15:49 19.78465 -52.94440 35062 ft 556 kts 65°
2026-04-25 15:49 19.81638 -52.86956 35060 ft 556 kts 65°
2026-04-25 15:50 19.84808 -52.79472 35059 ft 555 kts 65°
2026-04-25 15:50 19.87972 -52.71991 35057 ft 556 kts 65°
2026-04-25 15:51 19.90605 -52.65757 35061 ft 556 kts 65°
2026-04-25 15:51 19.94303 -52.56990 35060 ft 556 kts 65°
2026-04-25 15:52 19.97466 -52.49480 35061 ft 556 kts 65°
2026-04-25 15:52 20.00624 -52.41970 35063 ft 556 kts 65°
2026-04-25 15:53 20.03778 -52.34460 35061 ft 556 kts 65°
2026-04-25 15:53 20.06927 -52.26952 35059 ft 556 kts 65°
2026-04-25 15:54 20.10070 -52.19447 35063 ft 555 kts 65°
2026-04-25 15:54 20.13208 -52.11944 35059 ft 555 kts 65°
2026-04-25 15:55 20.16341 -52.04442 35059 ft 554 kts 65°
2026-04-25 15:55 20.19469 -51.96941 35068 ft 554 kts 65°
2026-04-25 15:56 20.22594 -51.89436 35062 ft 555 kts 65°
2026-04-25 15:56 20.25722 -51.81915 35064 ft 556 kts 65°
2026-04-25 15:57 20.28829 -51.74432 35064 ft 556 kts 65°
2026-04-25 15:57 20.31957 -51.66889 35063 ft 557 kts 65°
2026-04-25 15:58 20.35083 -51.59339 35070 ft 557 kts 65°
2026-04-25 15:58 20.38205 -51.51789 35062 ft 557 kts 65°
2026-04-25 15:59 20.41327 -51.44226 35060 ft 557 kts 65°
2026-04-25 15:59 20.44447 -51.36657 35062 ft 557 kts 65°
2026-04-25 16:00 20.46530 -51.31596 35060 ft 557 kts 65°
2026-04-25 16:00 20.50676 -51.21516 35066 ft 557 kts 65°
2026-04-25 16:01 20.53786 -51.13942 35067 ft 558 kts 65°
2026-04-25 16:01 20.56894 -51.06357 35062 ft 558 kts 65°
2026-04-25 16:02 20.60001 -50.98767 35063 ft 558 kts 65°
2026-04-25 16:02 20.63105 -50.91170 35063 ft 558 kts 65°
2026-04-25 16:03 20.66206 -50.83570 35069 ft 558 kts 65°
2026-04-25 16:03 20.69305 -50.75963 35065 ft 559 kts 65°
2026-04-25 16:04 20.72387 -50.68390 35072 ft 560 kts 65°
2026-04-25 16:04 20.75488 -50.60756 35071 ft 560 kts 65°
2026-04-25 16:05 20.78588 -50.53113 35068 ft 560 kts 65°
2026-04-25 16:06 20.83230 -50.41646 35070 ft 560 kts 65°
2026-04-25 16:06 20.86318 -50.34004 35069 ft 560 kts 65°
2026-04-25 16:07 20.89410 -50.26340 35066 ft 561 kts 65°
2026-04-25 16:07 20.92493 -50.18688 35061 ft 561 kts 65°
2026-04-25 16:08 20.95575 -50.11025 35070 ft 561 kts 65°
2026-04-25 16:08 20.98653 -50.03361 35075 ft 561 kts 65°
2026-04-25 16:09 21.01200 -49.95467 35059 ft 562 kts 76°
2026-04-25 16:09 21.03040 -49.87329 35070 ft 563 kts 76°
2026-04-25 16:10 21.04855 -49.79177 35071 ft 563 kts 76°
2026-04-25 16:10 21.06711 -49.71039 35065 ft 563 kts 76°
2026-04-25 16:11 21.08595 -49.62896 35071 ft 563 kts 76°
2026-04-25 16:11 21.10479 -49.54749 35070 ft 564 kts 75°
2026-04-25 16:12 21.12357 -49.46594 35069 ft 564 kts 75°
2026-04-25 16:12 21.14228 -49.38435 35072 ft 564 kts 76°
2026-04-25 16:13 21.16095 -49.30275 35061 ft 564 kts 76°
2026-04-25 16:13 21.17957 -49.22113 35065 ft 564 kts 76°
2026-04-25 16:14 21.19810 -49.13962 35068 ft 563 kts 76°
2026-04-25 16:14 21.21660 -49.05801 35075 ft 563 kts 75°
2026-04-25 16:15 21.23517 -48.97641 35067 ft 563 kts 75°
2026-04-25 16:15 21.25348 -48.89533 35071 ft 563 kts 75°
2026-04-25 16:16 21.27184 -48.81373 35073 ft 563 kts 75°
2026-04-25 16:16 21.29021 -48.73212 35069 ft 563 kts 75°
2026-04-25 16:17 21.30856 -48.65050 35069 ft 563 kts 75°
2026-04-25 16:17 21.32686 -48.56886 35079 ft 563 kts 75°
2026-04-25 16:18 21.34509 -48.48726 35073 ft 563 kts 75°
2026-04-25 16:18 21.36331 -48.40556 35069 ft 563 kts 75°
2026-04-25 16:19 21.38154 -48.32388 35077 ft 563 kts 75°
2026-04-25 16:19 21.39967 -48.24218 35073 ft 563 kts 75°
2026-04-25 16:20 21.42675 -48.11962 35074 ft 562 kts 75°
2026-04-25 16:21 21.45371 -47.99714 35068 ft 562 kts 75°
2026-04-25 16:21 21.47168 -47.91530 35074 ft 563 kts 75°
2026-04-25 16:22 21.48957 -47.83361 35076 ft 563 kts 75°
2026-04-25 16:22 21.50733 -47.75232 35074 ft 563 kts 75°
2026-04-25 16:23 21.52519 -47.67043 35089 ft 563 kts 75°
2026-04-25 16:23 21.54301 -47.58848 35073 ft 563 kts 75°
2026-04-25 16:24 21.56075 -47.50659 35073 ft 563 kts 75°
2026-04-25 16:24 21.57849 -47.42463 35077 ft 563 kts 75°
2026-04-25 16:25 21.59621 -47.34259 35073 ft 563 kts 75°
2026-04-25 16:25 21.61385 -47.26069 35081 ft 563 kts 75°
2026-04-25 16:26 21.63147 -47.17868 35087 ft 563 kts 75°
2026-04-25 16:26 21.64906 -47.09661 35081 ft 563 kts 75°
2026-04-25 16:27 21.66660 -47.01454 35077 ft 563 kts 75°
2026-04-25 16:27 21.68408 -46.93247 35081 ft 563 kts 75°
2026-04-25 16:28 21.69859 -46.86423 35076 ft 563 kts 75°
2026-04-25 16:28 21.71598 -46.78223 35080 ft 563 kts 76°
2026-04-25 16:29 21.73619 -46.68672 35085 ft 563 kts 75°
2026-04-25 16:29 21.75071 -46.61791 35081 ft 564 kts 76°
2026-04-25 16:30 21.76802 -46.53567 35081 ft 564 kts 75°
2026-04-25 16:30 21.78529 -46.45341 35085 ft 564 kts 75°
2026-04-25 16:31 21.80252 -46.37113 35084 ft 564 kts 76°
2026-04-25 16:31 21.81970 -46.28891 35093 ft 564 kts 75°
2026-04-25 16:32 21.83687 -46.20651 35084 ft 564 kts 75°
2026-04-25 16:32 21.85401 -46.12398 35085 ft 564 kts 75°
2026-04-25 16:33 21.87108 -46.04159 35085 ft 565 kts 76°
2026-04-25 16:33 21.88813 -45.95907 35078 ft 564 kts 76°
2026-04-25 16:34 21.90514 -45.87658 35100 ft 564 kts 75°
2026-04-25 16:34 21.92211 -45.79405 35088 ft 565 kts 75°
2026-04-25 16:35 21.93905 -45.71146 35085 ft 565 kts 75°
2026-04-25 16:35 21.95594 -45.62887 35087 ft 565 kts 76°
2026-04-25 16:36 21.97268 -45.54681 35085 ft 564 kts 76°
2026-04-25 16:36 21.98948 -45.46422 35090 ft 564 kts 76°
2026-04-25 16:37 22.00621 -45.38170 35089 ft 564 kts 76°
2026-04-25 16:37 22.02293 -45.29908 35086 ft 564 kts 75°
2026-04-25 16:38 22.03960 -45.21646 35086 ft 564 kts 75°
2026-04-25 16:38 22.05622 -45.13386 35085 ft 564 kts 76°
2026-04-25 16:39 22.07279 -45.05130 35093 ft 563 kts 76°
2026-04-25 16:39 22.08932 -44.96871 35091 ft 564 kts 75°
2026-04-25 16:40 22.10579 -44.88615 35083 ft 564 kts 76°
2026-04-25 16:40 22.12225 -44.80348 35092 ft 564 kts 76°
2026-04-25 16:41 22.13865 -44.72080 35091 ft 564 kts 76°
2026-04-25 16:41 22.16320 -44.59673 35092 ft 564 kts 76°
2026-04-25 16:42 22.17950 -44.51400 35094 ft 564 kts 76°
2026-04-25 16:42 22.19577 -44.43124 35091 ft 564 kts 76°
2026-04-25 16:43 22.21199 -44.34847 35089 ft 564 kts 76°
2026-04-25 16:43 22.22804 -44.26634 35090 ft 564 kts 76°
2026-04-25 16:44 22.24418 -44.18353 35098 ft 564 kts 76°
2026-04-25 16:44 22.26028 -44.10068 35091 ft 564 kts 76°
2026-04-25 16:45 22.27634 -44.01781 35096 ft 564 kts 76°
2026-04-25 16:45 22.29237 -43.93486 35100 ft 564 kts 76°
2026-04-25 16:46 22.30836 -43.85185 35095 ft 565 kts 76°
2026-04-25 16:46 22.32162 -43.78288 35097 ft 565 kts 76°
2026-04-25 16:47 22.34024 -43.68574 35093 ft 565 kts 76°
2026-04-25 16:47 22.35613 -43.60255 35101 ft 566 kts 76°
2026-04-25 16:48 22.37199 -43.51928 35095 ft 566 kts 76°
2026-04-25 16:48 22.38781 -43.43595 35096 ft 566 kts 76°
2026-04-25 16:49 22.40350 -43.35312 35098 ft 566 kts 76°
2026-04-25 16:49 22.41925 -43.26969 35084 ft 566 kts 76°
2026-04-25 16:50 22.43495 -43.18631 35097 ft 566 kts 76°
2026-04-25 16:50 22.45057 -43.10308 35096 ft 565 kts 76°
2026-04-25 16:51 22.46626 -43.01925 35107 ft 565 kts 76°
2026-04-25 16:51 22.47918 -42.95000 35097 ft 565 kts 76°
2026-04-25 16:52 22.49719 -42.85321 35097 ft 565 kts 76°
2026-04-25 16:52 22.51264 -42.76989 35102 ft 565 kts 76°
2026-04-25 16:53 22.53575 -42.64484 35097 ft 565 kts 76°
2026-04-25 16:54 22.55110 -42.56150 35114 ft 566 kts 76°
2026-04-25 16:54 22.56643 -42.47798 35106 ft 566 kts 76°
2026-04-25 16:55 22.58173 -42.39433 35106 ft 566 kts 76°
2026-04-25 16:55 22.59699 -42.31069 35102 ft 567 kts 76°
2026-04-25 16:56 22.61222 -42.22709 35104 ft 567 kts 75°
2026-04-25 16:56 22.62750 -42.14342 35104 ft 567 kts 76°
2026-04-25 16:57 22.64247 -42.05964 35101 ft 567 kts 76°
2026-04-25 16:57 22.65752 -41.97588 35109 ft 567 kts 76°
2026-04-25 16:58 22.67260 -41.89209 35104 ft 567 kts 76°
2026-04-25 16:58 22.68764 -41.80827 35104 ft 567 kts 76°
2026-04-25 16:59 22.70260 -41.72451 35110 ft 567 kts 76°
2026-04-25 16:59 22.71755 -41.64049 35103 ft 568 kts 76°
2026-04-25 17:00 22.73243 -41.55662 35095 ft 567 kts 76°
2026-04-25 17:00 22.74727 -41.47268 35104 ft 567 kts 76°
2026-04-25 17:01 22.76206 -41.38875 35107 ft 567 kts 76°
2026-04-25 17:01 22.77682 -41.30481 35106 ft 567 kts 76°
2026-04-25 17:02 22.79166 -41.22084 35099 ft 567 kts 76°
2026-04-25 17:02 22.80633 -41.13680 35103 ft 567 kts 76°
2026-04-25 17:03 22.82090 -41.05283 35103 ft 568 kts 76°
2026-04-25 17:03 22.83533 -40.96869 35104 ft 568 kts 76°
2026-04-25 17:04 22.84982 -40.88454 35107 ft 568 kts 76°
2026-04-25 17:04 22.86432 -40.80032 35103 ft 568 kts 76°
2026-04-25 17:05 22.87889 -40.71606 35105 ft 569 kts 76°
2026-04-25 17:05 22.90059 -40.58947 35099 ft 570 kts 76°
2026-04-25 17:06 22.91495 -40.50494 35100 ft 570 kts 76°
2026-04-25 17:06 22.92929 -40.42032 35104 ft 571 kts 76°
2026-04-25 17:07 22.94363 -40.33570 35105 ft 571 kts 76°
2026-04-25 17:07 22.95796 -40.25091 35119 ft 571 kts 76°
2026-04-25 17:08 22.97223 -40.16604 35108 ft 572 kts 76°
2026-04-25 17:08 22.98645 -40.08109 35115 ft 572 kts 77°
2026-04-25 17:09 22.99158 -39.99463 35115 ft 578 kts 91°
2026-04-25 17:09 22.98018 -39.90836 35102 ft 579 kts 105°
2026-04-25 17:10 22.95930 -39.82408 35104 ft 578 kts 105°
2026-04-25 17:10 22.93837 -39.73988 35111 ft 579 kts 105°
2026-04-25 17:11 22.91800 -39.65538 35107 ft 579 kts 104°
2026-04-25 17:11 22.89803 -39.57133 35114 ft 579 kts 104°
2026-04-25 17:12 22.87788 -39.48666 35109 ft 580 kts 104°
2026-04-25 17:12 22.85762 -39.40203 35101 ft 579 kts 104°
2026-04-25 17:13 22.84404 -39.34553 35107 ft 579 kts 104°
2026-04-25 17:13 22.81696 -39.23316 35107 ft 579 kts 104°
2026-04-25 17:14 22.79656 -39.14872 35108 ft 579 kts 104°
2026-04-25 17:14 22.77611 -39.06428 35114 ft 579 kts 104°
2026-04-25 17:15 22.75561 -38.97980 35097 ft 579 kts 105°
2026-04-25 17:15 22.73840 -38.90907 35114 ft 579 kts 105°
2026-04-25 17:16 22.71786 -38.82486 35106 ft 579 kts 105°
2026-04-25 17:16 22.69726 -38.74056 35105 ft 578 kts 105°
2026-04-25 17:17 22.67667 -38.65653 35122 ft 578 kts 105°
2026-04-25 17:17 22.65601 -38.57241 35103 ft 578 kts 105°
2026-04-25 17:18 22.63543 -38.48884 35105 ft 578 kts 105°
2026-04-25 17:18 22.61469 -38.40483 35117 ft 577 kts 105°
2026-04-25 17:19 22.59392 -38.32087 35102 ft 577 kts 105°
2026-04-25 17:19 22.57311 -38.23695 35095 ft 577 kts 105°
2026-04-25 17:20 22.55228 -38.15315 35101 ft 577 kts 105°
2026-04-25 17:20 22.53136 -38.06923 35114 ft 578 kts 105°
2026-04-25 17:21 22.51038 -37.98524 35104 ft 579 kts 105°
2026-04-25 17:21 22.48934 -37.90120 35099 ft 579 kts 105°
2026-04-25 17:22 22.47181 -37.83133 35101 ft 580 kts 105°
2026-04-25 17:22 22.44704 -37.73286 35112 ft 581 kts 105°
2026-04-25 17:23 22.42579 -37.64859 35105 ft 581 kts 105°
2026-04-25 17:23 22.40450 -37.56434 35102 ft 582 kts 105°
2026-04-25 17:24 22.38314 -37.48005 35107 ft 581 kts 105°
2026-04-25 17:24 22.36175 -37.39586 35097 ft 581 kts 105°
2026-04-25 17:25 22.34034 -37.31175 35107 ft 580 kts 105°
2026-04-25 17:25 22.31904 -37.22826 35118 ft 580 kts 105°
2026-04-25 17:26 22.29756 -37.14428 35104 ft 581 kts 105°
2026-04-25 17:26 22.27600 -37.06014 35088 ft 582 kts 105°
2026-04-25 17:27 22.25440 -36.97607 35114 ft 581 kts 105°
2026-04-25 17:27 22.23642 -36.90623 35102 ft 581 kts 105°
2026-04-25 17:28 22.21110 -36.80814 35101 ft 580 kts 105°
2026-04-25 17:28 22.18940 -36.72425 35112 ft 580 kts 105°
2026-04-25 17:29 22.16763 -36.64030 35100 ft 581 kts 105°
2026-04-25 17:29 22.14580 -36.55629 35091 ft 582 kts 105°
2026-04-25 17:30 22.12395 -36.47241 35104 ft 581 kts 105°
2026-04-25 17:30 22.10206 -36.38856 35101 ft 580 kts 105°
2026-04-25 17:31 22.08015 -36.30482 35105 ft 580 kts 105°
2026-04-25 17:31 22.05822 -36.22119 35102 ft 580 kts 105°
2026-04-25 17:32 22.03625 -36.13757 35099 ft 580 kts 105°
2026-04-25 17:32 22.01426 -36.05405 35105 ft 580 kts 105°
2026-04-25 17:33 21.99072 -35.97088 35108 ft 579 kts 110°
2026-04-25 17:33 21.96214 -35.88988 35111 ft 579 kts 112°
2026-04-25 17:34 21.93319 -35.80954 35104 ft 579 kts 111°
2026-04-25 17:34 21.90433 -35.72855 35110 ft 579 kts 111°
2026-04-25 17:35 21.87568 -35.64743 35111 ft 580 kts 111°
2026-04-25 17:35 21.84703 -35.56625 35090 ft 580 kts 111°
2026-04-25 17:36 21.81833 -35.48519 35113 ft 579 kts 111°
2026-04-25 17:36 21.78959 -35.40428 35102 ft 579 kts 111°
2026-04-25 17:37 21.76078 -35.32331 35101 ft 579 kts 111°
2026-04-25 17:37 21.73193 -35.24237 35107 ft 579 kts 111°
2026-04-25 17:38 21.70791 -35.17507 35103 ft 580 kts 111°
2026-04-25 17:38 21.67409 -35.08050 35098 ft 579 kts 111°
2026-04-25 17:39 21.64514 -34.99969 35098 ft 579 kts 111°
2026-04-25 17:39 21.61619 -34.91902 35101 ft 579 kts 111°
2026-04-25 17:40 21.58716 -34.83827 35099 ft 579 kts 111°
2026-04-25 17:40 21.55809 -34.75756 35098 ft 579 kts 111°
2026-04-25 17:41 21.52897 -34.67684 35086 ft 580 kts 111°
2026-04-25 17:41 21.49982 -34.59617 35097 ft 579 kts 111°
2026-04-25 17:42 21.47065 -34.51560 35098 ft 579 kts 111°
2026-04-25 17:42 21.44145 -34.43508 35098 ft 579 kts 111°
2026-04-25 17:43 21.41222 -34.35462 35099 ft 579 kts 111°
2026-04-25 17:43 21.38286 -34.27395 35097 ft 580 kts 112°
2026-04-25 17:44 21.35352 -34.19347 35091 ft 579 kts 111°
2026-04-25 17:44 21.32414 -34.11301 35090 ft 579 kts 112°
2026-04-25 17:45 21.30469 -34.05980 35093 ft 579 kts 112°
2026-04-25 17:45 21.26533 -33.95233 35088 ft 578 kts 112°
2026-04-25 17:46 21.23608 -33.87263 35088 ft 578 kts 112°
2026-04-25 17:46 21.20640 -33.79191 35088 ft 578 kts 112°
2026-04-25 17:47 21.17714 -33.71246 35082 ft 577 kts 112°
2026-04-25 17:47 21.14750 -33.63209 35084 ft 576 kts 112°
2026-04-25 17:48 21.10352 -33.51310 35089 ft 575 kts 112°
2026-04-25 17:49 21.07404 -33.43352 35083 ft 575 kts 112°
2026-04-25 17:49 21.04452 -33.35395 35089 ft 575 kts 112°
2026-04-25 17:50 21.01491 -33.27428 35088 ft 576 kts 112°
2026-04-25 17:50 20.98523 -33.19454 35087 ft 577 kts 112°
2026-04-25 17:51 20.95548 -33.11474 35092 ft 578 kts 112°
2026-04-25 17:51 20.92566 -33.03489 35086 ft 579 kts 112°
2026-04-25 17:52 20.89573 -32.95487 35086 ft 580 kts 112°
2026-04-25 17:52 20.86573 -32.87481 35091 ft 580 kts 112°
2026-04-25 17:53 20.83566 -32.79469 35068 ft 580 kts 112°
2026-04-25 17:53 20.80555 -32.71476 35072 ft 579 kts 112°
2026-04-25 17:54 20.77549 -32.63504 35073 ft 578 kts 112°
2026-04-25 17:54 20.74554 -32.55553 35076 ft 577 kts 112°
2026-04-25 17:55 20.71551 -32.47593 35075 ft 578 kts 112°
2026-04-25 17:55 20.68549 -32.39633 35076 ft 578 kts 112°
2026-04-25 17:56 20.65531 -32.31676 35071 ft 578 kts 112°
2026-04-25 17:56 20.62507 -32.23728 35070 ft 578 kts 112°
2026-04-25 17:57 20.59485 -32.15785 35075 ft 577 kts 112°
2026-04-25 17:57 20.56487 -32.07907 35074 ft 577 kts 112°
2026-04-25 17:58 20.53462 -31.99969 35070 ft 578 kts 112°
2026-04-25 17:58 20.50433 -31.92030 35070 ft 578 kts 112°
2026-04-25 17:59 20.47400 -31.84093 35054 ft 577 kts 112°
2026-04-25 17:59 20.44368 -31.76177 35064 ft 576 kts 112°
2026-04-25 18:00 20.41826 -31.69626 35061 ft 575 kts 114°
2026-04-25 18:00 20.37891 -31.60584 35070 ft 574 kts 116°
2026-04-25 18:01 20.34420 -31.52916 35065 ft 574 kts 117°
2026-04-25 18:01 20.30981 -31.45238 35065 ft 575 kts 116°
2026-04-25 18:02 20.27602 -31.37512 35060 ft 575 kts 116°
2026-04-25 18:02 20.24202 -31.29806 35060 ft 575 kts 116°
2026-04-25 18:03 20.21386 -31.23411 35056 ft 574 kts 115°
2026-04-25 18:03 20.17983 -31.15723 35060 ft 574 kts 116°
2026-04-25 18:04 20.14567 -31.08050 35062 ft 573 kts 116°
2026-04-25 18:04 20.11165 -31.00375 35059 ft 573 kts 116°
2026-04-25 18:05 20.07764 -30.92703 35049 ft 573 kts 116°
2026-04-25 18:05 20.04360 -30.85043 35057 ft 572 kts 116°
2026-04-25 18:06 20.00954 -30.77394 35056 ft 572 kts 116°
2026-04-25 18:06 19.97549 -30.69760 35054 ft 572 kts 116°
2026-04-25 18:07 19.94134 -30.62113 35056 ft 572 kts 116°
2026-04-25 18:07 19.90720 -30.54481 35052 ft 572 kts 116°
2026-04-25 18:08 19.87300 -30.46843 35044 ft 572 kts 116°
2026-04-25 18:08 19.83883 -30.39222 35050 ft 571 kts 116°
2026-04-25 18:09 19.80466 -30.31613 35048 ft 570 kts 116°
2026-04-25 18:09 19.77072 -30.24066 35051 ft 570 kts 116°
2026-04-25 18:10 19.73654 -30.16476 35053 ft 570 kts 116°
2026-04-25 18:10 19.70237 -30.08898 35052 ft 570 kts 116°
2026-04-25 18:11 19.66808 -30.01301 35044 ft 570 kts 116°
2026-04-25 18:11 19.63386 -29.93733 35049 ft 569 kts 116°
2026-04-25 18:12 19.59960 -29.86165 35043 ft 569 kts 116°
2026-04-25 18:12 19.56533 -29.78605 35052 ft 569 kts 116°
2026-04-25 18:13 19.53101 -29.71045 35044 ft 569 kts 116°
2026-04-25 18:13 19.49665 -29.63486 35045 ft 569 kts 116°
2026-04-25 18:14 19.44505 -29.52155 35046 ft 568 kts 116°
2026-04-25 18:14 19.41071 -29.44626 35039 ft 568 kts 116°
2026-04-25 18:15 19.37634 -29.37099 35041 ft 567 kts 117°
2026-04-25 18:15 19.34195 -29.29580 35038 ft 567 kts 117°
2026-04-25 18:16 19.30755 -29.22066 35043 ft 567 kts 117°
2026-04-25 18:17 19.25583 -29.10791 35027 ft 568 kts 117°
2026-04-25 18:17 19.22134 -29.03282 35036 ft 567 kts 117°
2026-04-25 18:18 19.18688 -28.95792 35031 ft 566 kts 117°
2026-04-25 18:18 19.15245 -28.88315 35034 ft 565 kts 117°
2026-04-25 18:19 19.11800 -28.80847 35035 ft 565 kts 117°
2026-04-25 18:19 19.08357 -28.73392 35030 ft 565 kts 117°
2026-04-25 18:20 19.04904 -28.65923 35032 ft 565 kts 117°
2026-04-25 18:20 19.01453 -28.58469 35028 ft 565 kts 117°
2026-04-25 18:21 18.97991 -28.51002 35028 ft 566 kts 117°
2026-04-25 18:21 18.94523 -28.43531 35028 ft 566 kts 117°
2026-04-25 18:22 18.91050 -28.36058 35025 ft 567 kts 117°
2026-04-25 18:22 18.87572 -28.28584 35025 ft 567 kts 117°
2026-04-25 18:23 18.84091 -28.21112 35024 ft 567 kts 117°
2026-04-25 18:23 18.80611 -28.13654 35018 ft 566 kts 117°
2026-04-25 18:24 18.77136 -28.06213 35023 ft 564 kts 117°
2026-04-25 18:24 18.73668 -27.98798 35022 ft 563 kts 117°
2026-04-25 18:25 18.70205 -27.91405 35024 ft 561 kts 117°
2026-04-25 18:25 18.66769 -27.84076 35025 ft 561 kts 117°
2026-04-25 18:26 18.63309 -27.76706 35028 ft 561 kts 117°
2026-04-25 18:26 18.59845 -27.69338 35020 ft 561 kts 117°
2026-04-25 18:27 18.56384 -27.61983 35024 ft 560 kts 117°
2026-04-25 18:27 18.52921 -27.54633 35017 ft 560 kts 117°
2026-04-25 18:28 18.49458 -27.47293 35025 ft 559 kts 117°
2026-04-25 18:28 18.45994 -27.39961 35014 ft 559 kts 117°
2026-04-25 18:29 18.40794 -27.28968 35016 ft 559 kts 117°
2026-04-25 18:30 18.33848 -27.14317 35020 ft 558 kts 117°
2026-04-25 18:30 18.30380 -27.07014 35014 ft 558 kts 117°
2026-04-25 18:31 18.26911 -26.99720 35013 ft 557 kts 117°
2026-04-25 18:31 18.23444 -26.92437 35011 ft 556 kts 117°
2026-04-25 18:32 18.19977 -26.85163 35014 ft 556 kts 117°
2026-04-25 18:32 18.16508 -26.77893 35007 ft 556 kts 118°
2026-04-25 18:33 18.13039 -26.70633 34997 ft 556 kts 117°
2026-04-25 18:33 18.09566 -26.63375 35010 ft 555 kts 117°
2026-04-25 18:34 18.06096 -26.56129 35008 ft 555 kts 117°
2026-04-25 18:34 18.02628 -26.48893 35004 ft 554 kts 117°
2026-04-25 18:35 17.99161 -26.41667 35005 ft 554 kts 118°
2026-04-25 18:35 17.95692 -26.34448 35003 ft 553 kts 118°
2026-04-25 18:36 17.92220 -26.27234 35003 ft 553 kts 118°
2026-04-25 18:36 17.88768 -26.20068 34992 ft 553 kts 118°
2026-04-25 18:37 17.85276 -26.12825 35000 ft 552 kts 118°
2026-04-25 18:37 17.81830 -26.05682 34998 ft 552 kts 118°
2026-04-25 18:38 17.78322 -25.98526 34999 ft 551 kts 119°
2026-04-25 18:38 17.74646 -25.91477 35002 ft 550 kts 120°
2026-04-25 18:39 17.70932 -25.84456 34999 ft 550 kts 120°
2026-04-25 18:39 17.67242 -25.77424 34998 ft 550 kts 120°
2026-04-25 18:40 17.63571 -25.70391 34996 ft 550 kts 120°
2026-04-25 18:40 17.59899 -25.63357 34999 ft 550 kts 120°
2026-04-25 18:41 17.56224 -25.56329 34990 ft 550 kts 120°
2026-04-25 18:41 17.52545 -25.49307 34992 ft 550 kts 120°
2026-04-25 18:42 17.50086 -25.44614 34991 ft 550 kts 120°
2026-04-25 18:42 17.45189 -25.35268 34991 ft 550 kts 120°
2026-04-25 18:43 17.41508 -25.28253 34992 ft 549 kts 120°
2026-04-25 18:43 17.37826 -25.21253 34998 ft 549 kts 120°
2026-04-25 18:44 17.34141 -25.14257 34988 ft 548 kts 120°
2026-04-25 18:44 17.30458 -25.07269 34987 ft 548 kts 120°
2026-04-25 18:45 17.26775 -25.00288 34995 ft 548 kts 121°
2026-04-25 18:45 17.23093 -24.93315 34986 ft 547 kts 121°
2026-04-25 18:46 17.19411 -24.86351 34980 ft 547 kts 121°
2026-04-25 18:46 17.15729 -24.79393 34989 ft 547 kts 121°
2026-04-25 18:47 17.12048 -24.72444 34991 ft 546 kts 121°
2026-04-25 18:47 17.08373 -24.65513 34969 ft 545 kts 121°
2026-04-25 18:48 17.04721 -24.58634 34971 ft 544 kts 121°
2026-04-25 18:48 17.01048 -24.51721 34984 ft 544 kts 121°
2026-04-25 18:49 16.97375 -24.44817 34959 ft 543 kts 121°
2026-04-25 18:49 16.94300 -24.39041 34948 ft 543 kts 121°
2026-04-25 18:50 16.90624 -24.32143 34972 ft 544 kts 121°
2026-04-25 18:50 16.86943 -24.25244 34971 ft 544 kts 121°
2026-04-25 18:51 16.83882 -24.19511 34958 ft 544 kts 121°
2026-04-25 18:51 16.79579 -24.11459 34974 ft 543 kts 121°
2026-04-25 18:52 16.75918 -24.04618 34975 ft 543 kts 121°
2026-04-25 18:52 16.72230 -23.97733 34984 ft 543 kts 121°
2026-04-25 18:53 16.68543 -23.90856 34959 ft 544 kts 121°
2026-04-25 18:53 16.64849 -23.83972 34972 ft 544 kts 121°
2026-04-25 18:54 16.59302 -23.73649 34964 ft 544 kts 121°
2026-04-25 18:55 16.55600 -23.66768 34961 ft 544 kts 121°
2026-04-25 18:55 16.51896 -23.59891 34959 ft 544 kts 121°
2026-04-25 18:56 16.48191 -23.53018 34948 ft 544 kts 121°
2026-04-25 18:56 16.44488 -23.46155 34958 ft 544 kts 121°
2026-04-25 18:57 16.40778 -23.39288 34961 ft 544 kts 121°
2026-04-25 18:57 16.37066 -23.32422 34938 ft 544 kts 121°
2026-04-25 18:58 16.33355 -23.25565 34957 ft 543 kts 121°
2026-04-25 18:58 16.27791 -23.15296 34947 ft 542 kts 121°
2026-04-25 18:59 16.20372 -23.01627 34953 ft 542 kts 121°
2026-04-25 19:00 16.14805 -22.91385 34938 ft 543 kts 121°
2026-04-25 19:01 16.09278 -22.81102 34933 ft 543 kts 120°
2026-04-25 19:01 16.05644 -22.74226 34946 ft 542 kts 120°
2026-04-25 19:02 16.00186 -22.63933 34949 ft 541 kts 121°
2026-04-25 19:03 15.95336 -22.54827 34953 ft 541 kts 121°
2026-04-25 19:03 15.91096 -22.46876 34953 ft 541 kts 121°
2026-04-25 19:04 15.85626 -22.36631 34951 ft 541 kts 121°
2026-04-25 19:05 15.78320 -22.22967 34945 ft 541 kts 121°
2026-04-25 19:06 15.74668 -22.16146 34942 ft 540 kts 121°
2026-04-25 19:06 15.69187 -22.05923 34939 ft 540 kts 121°
2026-04-25 19:07 15.63704 -21.95710 34940 ft 540 kts 121°
2026-04-25 19:08 15.58223 -21.85514 34941 ft 540 kts 121°
2026-04-25 19:09 15.51523 -21.73070 34933 ft 539 kts 121°
2026-04-25 19:10 15.45420 -21.61754 34936 ft 539 kts 121°
2026-04-25 19:10 15.41762 -21.54979 34936 ft 538 kts 121°
2026-04-25 19:11 15.38106 -21.48214 34929 ft 538 kts 121°
2026-04-25 19:11 15.34443 -21.41443 34929 ft 539 kts 121°
2026-04-25 19:12 15.30776 -21.34671 34926 ft 539 kts 121°
2026-04-25 19:12 15.27107 -21.27900 34925 ft 539 kts 121°
2026-04-25 19:13 15.23441 -21.21140 34932 ft 538 kts 121°
2026-04-25 19:13 15.19802 -21.14437 34928 ft 537 kts 121°
2026-04-25 19:14 15.16116 -21.07655 34923 ft 537 kts 121°
2026-04-25 19:14 15.12460 -21.00932 34925 ft 536 kts 121°
2026-04-25 19:15 15.08824 -20.94253 34922 ft 536 kts 121°
2026-04-25 19:15 15.05162 -20.87531 34926 ft 536 kts 121°
2026-04-25 19:16 15.01498 -20.80810 34920 ft 536 kts 121°
2026-04-25 19:16 14.97828 -20.74095 34921 ft 536 kts 121°
2026-04-25 19:17 14.94168 -20.67389 34917 ft 535 kts 120°
2026-04-25 19:17 14.90510 -20.60694 34920 ft 534 kts 121°
2026-04-25 19:18 14.86857 -20.54018 34923 ft 534 kts 121°
2026-04-25 19:18 14.83199 -20.47341 34917 ft 534 kts 121°
2026-04-25 19:19 14.79541 -20.40669 34916 ft 533 kts 121°
2026-04-25 19:19 14.75883 -20.34000 34915 ft 533 kts 121°
2026-04-25 19:20 14.72224 -20.27334 34909 ft 533 kts 121°
2026-04-25 19:20 14.68724 -20.20587 34910 ft 533 kts 115°
2026-04-25 19:21 14.66217 -20.13396 34924 ft 532 kts 108°
2026-04-25 19:21 14.62828 -20.02489 34909 ft 532 kts 108°
2026-04-25 19:22 14.60522 -19.95230 34906 ft 532 kts 108°
2026-04-25 19:23 14.57024 -19.84356 34907 ft 532 kts 108°
2026-04-25 19:23 14.53521 -19.73480 34908 ft 532 kts 108°
2026-04-25 19:24 14.51186 -19.66230 34904 ft 532 kts 108°
2026-04-25 19:25 14.46511 -19.51741 34900 ft 532 kts 108°
2026-04-25 19:25 14.44168 -19.44495 34901 ft 532 kts 108°
2026-04-25 19:26 14.41827 -19.37261 34895 ft 531 kts 108°
2026-04-25 19:26 14.39509 -19.30084 34895 ft 530 kts 108°
2026-04-25 19:27 14.37943 -19.25253 34695 ft 533 kts 108°
2026-04-25 19:27 14.35977 -19.19222 34116 ft 532 kts 108°
2026-04-25 19:27 14.34800 -19.15606 33766 ft 531 kts 108°
2026-04-25 19:28 14.33628 -19.12004 33393 ft 531 kts 108°
2026-04-25 19:28 14.32453 -19.08390 33013 ft 530 kts 108°
2026-04-25 19:28 14.31284 -19.04797 32651 ft 530 kts 108°
2026-04-25 19:28 14.30113 -19.01198 32289 ft 529 kts 108°
2026-04-25 19:29 14.28941 -18.97596 31921 ft 531 kts 108°
2026-04-25 19:29 14.27760 -18.93971 31576 ft 535 kts 107°
2026-04-25 19:29 14.26575 -18.90335 31230 ft 534 kts 107°
2026-04-25 19:29 14.25394 -18.86717 30884 ft 531 kts 107°
2026-04-25 19:30 14.24217 -18.83115 30494 ft 529 kts 107°
2026-04-25 19:30 14.23044 -18.79523 30081 ft 528 kts 107°
2026-04-25 19:30 14.21874 -18.75943 29615 ft 526 kts 107°
2026-04-25 19:30 14.20713 -18.72395 29149 ft 518 kts 107°
2026-04-25 19:31 14.19571 -18.68907 28675 ft 509 kts 107°
2026-04-25 19:31 14.18451 -18.65487 28379 ft 498 kts 107°
2026-04-25 19:31 14.17354 -18.62142 28017 ft 488 kts 107°
2026-04-25 19:31 14.16275 -18.58848 27548 ft 482 kts 107°
2026-04-25 19:32 14.15210 -18.55600 27095 ft 475 kts 107°
2026-04-25 19:32 14.14157 -18.52389 26666 ft 470 kts 107°
2026-04-25 19:32 14.13114 -18.49212 26238 ft 466 kts 108°
2026-04-25 19:32 14.12779 -18.48190 26094 ft 464 kts 108°
2026-04-25 19:33 14.11057 -18.42948 25402 ft 457 kts 108°
2026-04-25 19:33 14.10046 -18.39870 24983 ft 452 kts 108°
2026-04-25 19:33 14.09042 -18.36817 24578 ft 448 kts 108°
2026-04-25 19:33 14.08047 -18.33794 24175 ft 443 kts 108°
2026-04-25 19:34 14.07062 -18.30801 23793 ft 439 kts 108°
2026-04-25 19:34 14.06088 -18.27835 23388 ft 435 kts 108°
2026-04-25 19:34 14.05122 -18.24892 22919 ft 432 kts 108°
2026-04-25 19:34 14.04157 -18.21976 22471 ft 428 kts 108°
2026-04-25 19:35 14.03201 -18.19084 22008 ft 425 kts 108°
2026-04-25 19:35 14.02254 -18.16215 21562 ft 421 kts 109°
2026-04-25 19:35 14.01315 -18.13369 21118 ft 418 kts 109°
2026-04-25 19:35 14.00699 -18.11501 20834 ft 416 kts 109°
2026-04-25 19:36 13.99791 -18.08748 20368 ft 398 kts 109°
2026-04-25 19:36 13.98901 -18.06055 19959 ft 396 kts 109°
2026-04-25 19:36 13.97870 -18.02480 19387 ft 390 kts 96°
2026-04-25 19:36 13.97855 -18.00606 19097 ft 388 kts 81°
2026-04-25 19:37 13.98951 -17.97152 18586 ft 383 kts 58°
2026-04-25 19:37 13.99942 -17.95622 18306 ft 378 kts 51°
2026-04-25 19:37 14.01525 -17.93467 17903 ft 377 kts 50°
2026-04-25 19:37 14.03127 -17.91333 17446 ft 376 kts 50°
2026-04-25 19:38 14.04708 -17.89231 17004 ft 376 kts 50°
2026-04-25 19:38 14.06323 -17.87068 16544 ft 376 kts 51°
2026-04-25 19:38 14.07902 -17.84937 16114 ft 374 kts 51°
2026-04-25 19:38 14.09474 -17.82804 15689 ft 373 kts 51°
2026-04-25 19:39 14.11036 -17.80675 15266 ft 372 kts 52°
2026-04-25 19:39 14.12589 -17.78552 14848 ft 370 kts 52°
2026-04-25 19:39 14.14136 -17.76435 14442 ft 369 kts 52°
2026-04-25 19:39 14.15677 -17.74324 14015 ft 368 kts 52°
2026-04-25 19:40 14.17213 -17.72220 13611 ft 367 kts 53°
2026-04-25 19:40 14.18743 -17.70122 13147 ft 366 kts 53°
2026-04-25 19:40 14.20264 -17.68028 12703 ft 363 kts 54°
2026-04-25 19:40 14.21546 -17.65797 12252 ft 361 kts 66°
2026-04-25 19:41 14.22362 -17.63443 11775 ft 338 kts 76°
2026-04-25 19:41 14.22957 -17.61170 11489 ft 321 kts 76°
2026-04-25 19:41 14.23537 -17.58995 11216 ft 317 kts 76°
2026-04-25 19:41 14.23930 -17.57536 10935 ft 308 kts 76°
2026-04-25 19:42 14.24688 -17.54732 10454 ft 306 kts 76°
2026-04-25 19:42 14.25264 -17.52616 10095 ft 307 kts 76°
2026-04-25 19:42 14.25633 -17.50477 9720 ft 302 kts 88°
2026-04-25 19:42 14.25651 -17.48363 9300 ft 289 kts 93°
2026-04-25 19:43 14.25586 -17.46327 8880 ft 282 kts 93°
2026-04-25 19:43 14.25500 -17.44301 8507 ft 283 kts 93°
2026-04-25 19:43 14.25393 -17.42272 8124 ft 283 kts 93°
2026-04-25 19:43 14.25274 -17.40288 7708 ft 273 kts 94°
2026-04-25 19:44 14.25137 -17.38322 7357 ft 279 kts 93°
2026-04-25 19:44 14.24978 -17.36309 7000 ft 284 kts 93°
2026-04-25 19:44 14.24832 -17.34285 6624 ft 281 kts 88°
2026-04-25 19:44 14.25150 -17.32351 6235 ft 272 kts 69°
2026-04-25 19:45 14.25820 -17.30540 5873 ft 271 kts 65°
2026-04-25 19:45 14.26553 -17.28750 5491 ft 271 kts 64°
2026-04-25 19:45 14.27292 -17.26961 5122 ft 268 kts 64°
2026-04-25 19:45 14.27997 -17.25216 4736 ft 263 kts 64°
2026-04-25 19:46 14.28703 -17.23474 4371 ft 264 kts 64°
2026-04-25 19:46 14.29469 -17.21780 3939 ft 255 kts 60°
2026-04-25 19:46 14.30258 -17.20145 3588 ft 255 kts 60°
2026-04-25 19:46 14.31066 -17.18507 3227 ft 257 kts 60°
2026-04-25 19:47 14.31859 -17.16909 3009 ft 247 kts 59°
2026-04-25 19:47 14.32640 -17.15323 3005 ft 250 kts 60°
2026-04-25 19:47 14.33428 -17.13729 3004 ft 248 kts 60°
2026-04-25 19:47 14.34211 -17.12150 2993 ft 247 kts 60°
2026-04-25 19:48 14.34983 -17.10582 2996 ft 243 kts 60°
2026-04-25 19:48 14.35743 -17.09030 2989 ft 241 kts 59°
2026-04-25 19:48 14.36751 -17.07722 2982 ft 227 kts 31°
2026-04-25 19:48 14.38206 -17.07209 3026 ft 221 kts
2026-04-25 19:49 14.39731 -17.07100 3005 ft 213 kts
2026-04-25 19:49 14.40686 -17.07066 3000 ft 205 kts
2026-04-25 19:49 14.42573 -17.07055 3003 ft 203 kts 360°
2026-04-25 19:49 14.43970 -17.07064 3006 ft 198 kts 360°
2026-04-25 19:50 14.46646 -17.07089 3000 ft 192 kts 360°
2026-04-25 19:50 14.47961 -17.07103 3007 ft 187 kts
2026-04-25 19:50 14.49232 -17.07115 2995 ft 179 kts
2026-04-25 19:51 14.50478 -17.07126 3004 ft 181 kts 360°
2026-04-25 19:51 14.51747 -17.07139 2844 ft 184 kts
2026-04-25 19:51 14.52994 -17.07149 2649 ft 173 kts 359°
2026-04-25 19:51 14.54171 -17.07161 2428 ft 169 kts 359°
2026-04-25 19:52 14.55328 -17.07172 2217 ft 167 kts
2026-04-25 19:52 14.56498 -17.07182 2002 ft 166 kts
2026-04-25 19:52 14.57660 -17.07193 1788 ft 170 kts
2026-04-25 19:52 14.58824 -17.07205 1585 ft 166 kts
2026-04-25 19:53 14.59975 -17.07216 1357 ft 159 kts
2026-04-25 19:53 14.61037 -17.07225 1155 ft 152 kts 359°
2026-04-25 19:53 14.62105 -17.07233 944 ft 157 kts 358°
2026-04-25 19:53 14.63187 -17.07245 819 ft 155 kts 358°
2026-04-25 19:54 14.64283 -17.07253 651 ft 159 kts 358°
2026-04-25 19:54 14.65360 -17.07261 389 ft 147 kts 357°
2026-04-25 19:54 14.66293 -17.07284 295 ft 118 kts 359°
2026-04-25 19:54 14.66741 -17.07282 306 ft 71 kts
2026-04-25 19:55 14.67047 -17.07250 306 ft 18 kts 46°
2026-04-25 19:55 14.67075 -17.07139 304 ft 10 kts 88°
2026-04-25 19:55 14.67075 -17.07133 304 ft 1 kts 88°
2026-04-25 19:55 14.67075 -17.07130 304 ft 0 kts 88°
2026-04-25 19:56 14.67076 -17.07119 304 ft 3 kts 87°
2026-04-25 19:56 14.67078 -17.07092 303 ft 5 kts 85°
2026-04-25 19:56 14.67078 -17.07055 302 ft 5 kts 97°
2026-04-25 19:56 14.67073 -17.07031 300 ft 14 kts 106°
2026-04-25 19:57 14.66976 -17.06942 301 ft 19 kts 130°
2026-04-25 19:57 14.66964 -17.06929 301 ft 7 kts 137°
2026-04-25 19:57 14.66864 -17.06916 298 ft 8 kts 182°
2026-04-25 19:57 14.66861 -17.06916 298 ft 3 kts 182°
2026-04-25 19:58 14.66762 -17.06919 300 ft 18 kts 181°
2026-04-25 19:58 14.66666 -17.06924 300 ft 1 kts 184°
2026-04-25 19:58 14.66662 -17.06924 300 ft 1 kts 184°